Time,TemperatureF,DewpointF,PressureIn,WindDirection,WindDirectionDegrees,WindSpeedMPH,WindSpeedGustMPH,Humidity,HourlyPrecipIn,Conditions,Clouds,dailyrainin,SoftwareType,DateUTC
2014-01-02 00:07:00,-4.2,-6.8,30.28,NNE,22,0.0,-999.0,88,-99.99,,,0.00,Acu-Link.com,2014-01-02 06:07:00,
2014-01-02 00:22:00,-4.4,-7.0,30.28,NE,45,0.0,-999.0,88,-99.99,,,0.00,Acu-Link.com,2014-01-02 06:22:00,
2014-01-02 00:38:00,-4.9,-7.5,30.27,NE,45,0.0,-999.0,88,-99.99,,,0.00,Acu-Link.com,2014-01-02 06:38:00,
2014-01-02 00:53:00,-4.9,-7.3,30.27,North,0,0.0,-999.0,89,-99.99,,,0.00,Acu-Link.com,2014-01-02 06:53:00,
2014-01-02 01:08:00,-5.1,-7.5,30.27,North,0,0.0,-999.0,89,-99.99,,,0.00,Acu-Link.com,2014-01-02 07:08:00,
2014-01-02 01:24:00,-5.6,-8.0,30.28,NNW,337,0.0,-999.0,89,-99.99,,,0.00,Acu-Link.com,2014-01-02 07:24:00,
2014-01-02 01:39:00,-5.6,-7.8,30.27,North,0,0.0,-999.0,90,-99.99,,,0.00,Acu-Link.com,2014-01-02 07:39:00,
2014-01-02 01:54:00,-5.8,-8.2,30.27,NW,315,0.0,-999.0,89,-99.99,,,0.00,Acu-Link.com,2014-01-02 07:54:00,
2014-01-02 02:10:00,-6.0,-8.4,30.27,NNW,337,0.0,-999.0,89,-99.99,,,0.00,Acu-Link.com,2014-01-02 08:10:00,
2014-01-02 02:25:00,-5.8,-8.0,30.27,NW,315,0.0,-999.0,90,-99.99,,,0.00,Acu-Link.com,2014-01-02 08:25:00,
2014-01-02 02:40:00,-6.0,-8.4,30.28,NNW,337,0.0,-999.0,89,-99.99,,,0.00,Acu-Link.com,2014-01-02 08:40:00,
2014-01-02 02:55:00,-6.2,-8.6,30.28,NNE,22,0.0,-999.0,89,-99.99,,,0.00,Acu-Link.com,2014-01-02 08:55:00,
2014-01-02 03:11:00,-6.5,-9.1,30.27,NE,45,0.0,-999.0,88,-99.99,,,0.00,Acu-Link.com,2014-01-02 09:11:00,
2014-01-02 03:26:00,-6.7,-9.3,30.27,NNW,337,0.0,-999.0,88,-99.99,,,0.00,Acu-Link.com,2014-01-02 09:26:00,
2014-01-02 03:41:00,-6.7,-9.3,30.26,NW,315,0.0,-999.0,88,-99.99,,,0.00,Acu-Link.com,2014-01-02 09:41:00,
2014-01-02 03:57:00,-6.3,-8.9,30.28,West,270,0.0,-999.0,88,-99.99,,,0.00,Acu-Link.com,2014-01-02 09:57:00,
2014-01-02 04:12:00,-6.2,-8.8,30.28,NW,315,0.0,-999.0,88,-99.99,,,0.00,Acu-Link.com,2014-01-02 10:12:00,
2014-01-02 04:27:00,-6.0,-8.6,30.28,WNW,292,0.0,-999.0,88,-99.99,,,0.00,Acu-Link.com,2014-01-02 10:27:00,
2014-01-02 04:43:00,-6.0,-8.6,30.28,NNW,337,0.0,-999.0,88,-99.99,,,0.00,Acu-Link.com,2014-01-02 10:43:00,
2014-01-02 04:58:00,-6.0,-8.6,30.28,NNW,337,0.0,-999.0,88,-99.99,,,0.00,Acu-Link.com,2014-01-02 10:58:00,
2014-01-02 05:13:00,-5.6,-8.2,30.29,NNW,337,0.0,-999.0,88,-99.99,,,0.00,Acu-Link.com,2014-01-02 11:13:00,
2014-01-02 05:29:00,-5.4,-8.3,30.28,North,0,0.0,-999.0,87,-99.99,,,0.00,Acu-Link.com,2014-01-02 11:29:00,
2014-01-02 05:44:00,-5.8,-8.6,30.28,NNE,22,0.0,-999.0,87,-99.99,,,0.00,Acu-Link.com,2014-01-02 11:44:00,
2014-01-02 05:59:00,-6.5,-9.3,30.30,North,0,0.0,-999.0,87,-99.99,,,0.00,Acu-Link.com,2014-01-02 11:59:00,
2014-01-02 06:15:00,-7.2,-10.0,30.30,NE,45,0.0,-999.0,87,-99.99,,,0.00,Acu-Link.com,2014-01-02 12:15:00,
2014-01-02 06:30:00,-7.6,-10.2,30.30,NE,45,0.0,-999.0,88,-99.99,,,0.00,Acu-Link.com,2014-01-02 12:30:00,
2014-01-02 06:45:00,-7.8,-10.4,30.31,NNW,337,0.0,-999.0,88,-99.99,,,0.00,Acu-Link.com,2014-01-02 12:45:00,
2014-01-02 07:00:00,-8.1,-10.7,30.31,NNE,22,0.0,-999.0,88,-99.99,,,0.00,Acu-Link.com,2014-01-02 13:00:00,
2014-01-02 07:16:00,-8.5,-11.1,30.31,North,0,0.0,-999.0,88,-99.99,,,0.00,Acu-Link.com,2014-01-02 13:16:00,
2014-01-02 07:31:00,-8.7,-11.0,30.31,NNW,337,0.0,-999.0,89,-99.99,,,0.00,Acu-Link.com,2014-01-02 13:31:00,
2014-01-02 07:46:00,-9.0,-11.3,30.32,North,0,0.0,-999.0,89,-99.99,,,0.00,Acu-Link.com,2014-01-02 13:46:00,
2014-01-02 08:02:00,-9.2,-11.5,30.32,NNW,337,0.0,-999.0,89,-99.99,,,0.00,Acu-Link.com,2014-01-02 14:02:00,
2014-01-02 08:17:00,-9.0,-11.8,30.32,NNW,337,0.0,-999.0,87,-99.99,,,0.00,Acu-Link.com,2014-01-02 14:17:00,
2014-01-02 08:32:00,-8.3,-11.1,30.33,North,0,0.0,-999.0,87,-99.99,,,0.00,Acu-Link.com,2014-01-02 14:32:00,
2014-01-02 08:47:00,-8.0,-10.8,30.34,North,0,0.0,-999.0,87,-99.99,,,0.00,Acu-Link.com,2014-01-02 14:47:00,
2014-01-02 09:03:00,-6.9,-10.0,30.35,NNW,337,0.0,-999.0,86,-99.99,,,0.00,Acu-Link.com,2014-01-02 15:03:00,
2014-01-02 09:18:00,-5.1,-8.4,30.36,NNW,337,0.0,-999.0,85,-99.99,,,0.00,Acu-Link.com,2014-01-02 15:18:00,
2014-01-02 09:33:00,-5.1,-8.9,30.36,West,270,0.0,-999.0,83,-99.99,,,0.00,Acu-Link.com,2014-01-02 15:33:00,
2014-01-02 09:48:00,-2.6,-6.5,30.36,NW,315,0.0,-999.0,83,-99.99,,,0.00,Acu-Link.com,2014-01-02 15:48:00,
2014-01-02 10:04:00,-4.4,-8.0,30.36,NW,315,0.0,-999.0,84,-99.99,,,0.00,Acu-Link.com,2014-01-02 16:04:00,
2014-01-02 10:19:00,-4.0,-7.6,30.37,NNW,337,0.0,-999.0,84,-99.99,,,0.00,Acu-Link.com,2014-01-02 16:19:00,
2014-01-02 10:34:00,-3.5,-7.3,30.37,NE,45,0.0,-999.0,83,-99.99,,,0.00,Acu-Link.com,2014-01-02 16:34:00,
2014-01-02 10:50:00,-4.2,-8.0,30.36,NNW,337,0.0,-999.0,83,-99.99,,,0.00,Acu-Link.com,2014-01-02 16:50:00,
2014-01-02 11:05:00,-2.9,-7.0,30.37,NNE,22,0.0,-999.0,82,-99.99,,,0.00,Acu-Link.com,2014-01-02 17:05:00,
2014-01-02 11:20:00,-2.7,-7.3,30.37,NE,45,0.0,-999.0,80,-99.99,,,0.00,Acu-Link.com,2014-01-02 17:20:00,
2014-01-02 11:35:00,-3.1,-7.7,30.36,NE,45,0.0,-999.0,80,-99.99,,,0.00,Acu-Link.com,2014-01-02 17:35:00,
2014-01-02 11:51:00,-2.9,-7.5,30.37,NNE,22,0.0,-999.0,80,-99.99,,,0.00,Acu-Link.com,2014-01-02 17:51:00,
2014-01-02 12:06:00,-2.2,-7.3,30.37,NNE,22,0.0,-999.0,78,-99.99,,,0.00,Acu-Link.com,2014-01-02 18:06:00,
2014-01-02 12:21:00,-2.0,-7.7,30.35,East,90,0.0,-999.0,76,-99.99,,,0.00,Acu-Link.com,2014-01-02 18:21:00,
2014-01-02 12:36:00,-1.7,-7.9,30.35,ENE,67,0.0,-999.0,74,-99.99,,,0.00,Acu-Link.com,2014-01-02 18:36:00,
2014-01-02 12:52:00,-1.8,-7.5,30.35,NE,45,0.0,-999.0,76,-99.99,,,0.00,Acu-Link.com,2014-01-02 18:52:00,
2014-01-02 13:07:00,-0.9,-6.9,30.34,ESE,112,1.7,-999.0,75,-99.99,,,0.00,Acu-Link.com,2014-01-02 19:07:00,
2014-01-02 13:22:00,-1.5,-8.3,30.34,ESE,112,0.0,-999.0,72,-99.99,,,0.00,Acu-Link.com,2014-01-02 19:22:00,
2014-01-02 13:38:00,-1.3,-7.8,30.33,East,90,1.1,-999.0,73,-99.99,,,0.00,Acu-Link.com,2014-01-02 19:38:00,
2014-01-02 13:53:00,-0.9,-8.0,30.33,East,90,0.0,-999.0,71,-99.99,,,0.00,Acu-Link.com,2014-01-02 19:53:00,
2014-01-02 14:08:00,-0.8,-8.2,30.33,ESE,112,0.0,-999.0,70,-99.99,,,0.00,Acu-Link.com,2014-01-02 20:08:00,
2014-01-02 14:24:00,-0.6,-8.9,30.33,East,90,0.0,-999.0,67,-99.99,,,0.00,Acu-Link.com,2014-01-02 20:24:00,
2014-01-02 14:39:00,0.0,-8.0,30.34,SE,135,0.0,-999.0,68,-99.99,,,0.00,Acu-Link.com,2014-01-02 20:39:00,
2014-01-02 14:54:00,-0.6,-8.9,30.33,SSE,157,0.0,-999.0,67,-99.99,,,0.00,Acu-Link.com,2014-01-02 20:54:00,
2014-01-02 15:10:00,-0.8,-8.5,30.33,East,90,0.0,-999.0,69,-99.99,,,0.00,Acu-Link.com,2014-01-02 21:10:00,
2014-01-02 15:25:00,-1.1,-10.3,30.33,ESE,112,0.0,-999.0,64,-99.99,,,0.00,Acu-Link.com,2014-01-02 21:25:00,
2014-01-02 15:40:00,-0.9,-8.6,30.33,South,180,0.0,-999.0,69,-99.99,,,0.00,Acu-Link.com,2014-01-02 21:40:00,
2014-01-02 15:55:00,-1.8,-9.2,30.33,East,90,1.1,-999.0,70,-99.99,,,0.00,Acu-Link.com,2014-01-02 21:55:00,
2014-01-02 16:11:00,-2.0,-8.8,30.33,ENE,67,0.0,-999.0,72,-99.99,,,0.00,Acu-Link.com,2014-01-02 22:11:00,
2014-01-02 16:26:00,-2.7,-9.2,30.34,ESE,112,0.0,-999.0,73,-99.99,,,0.00,Acu-Link.com,2014-01-02 22:26:00,
2014-01-02 16:41:00,-3.1,-9.0,30.33,East,90,1.1,-999.0,75,-99.99,,,0.00,Acu-Link.com,2014-01-02 22:41:00,
2014-01-02 16:56:00,-3.1,-9.0,30.33,NE,45,0.0,-999.0,75,-99.99,,,0.00,Acu-Link.com,2014-01-02 22:56:00,
2014-01-02 17:12:00,-4.4,-9.5,30.32,SE,135,0.0,-999.0,78,-99.99,,,0.00,Acu-Link.com,2014-01-02 23:12:00,
2014-01-02 17:27:00,-4.9,-9.5,30.33,ESE,112,1.1,-999.0,80,-99.99,,,0.00,Acu-Link.com,2014-01-02 23:27:00,
2014-01-02 17:42:00,-5.3,-9.6,30.33,SE,135,0.0,-999.0,81,-99.99,,,0.00,Acu-Link.com,2014-01-02 23:42:00,
2014-01-02 17:57:00,-5.8,-9.8,30.32,ESE,112,0.0,-999.0,82,-99.99,,,0.00,Acu-Link.com,2014-01-02 23:57:00,
2014-01-02 18:13:00,-6.0,-9.8,30.31,East,90,0.0,-999.0,83,-99.99,,,0.00,Acu-Link.com,2014-01-03 00:13:00,
2014-01-02 18:28:00,-6.2,-10.0,30.30,ESE,112,0.0,-999.0,83,-99.99,,,0.00,Acu-Link.com,2014-01-03 00:28:00,
2014-01-02 18:43:00,-6.5,-10.3,30.30,SE,135,0.0,-999.0,83,-99.99,,,0.00,Acu-Link.com,2014-01-03 00:43:00,
2014-01-02 18:59:00,-7.2,-11.0,30.30,SE,135,0.0,-999.0,83,-99.99,,,0.00,Acu-Link.com,2014-01-03 00:59:00,
2014-01-02 19:14:00,-7.4,-11.2,30.30,SSE,157,0.0,-999.0,83,-99.99,,,0.00,Acu-Link.com,2014-01-03 01:14:00,
2014-01-02 19:29:00,-7.6,-11.4,30.30,SSE,157,0.0,-999.0,83,-99.99,,,0.00,Acu-Link.com,2014-01-03 01:29:00,
2014-01-02 19:44:00,-7.8,-11.6,30.29,ESE,112,0.0,-999.0,83,-99.99,,,0.00,Acu-Link.com,2014-01-03 01:44:00,
2014-01-02 20:00:00,-8.0,-11.8,30.28,ESE,112,0.0,-999.0,83,-99.99,,,0.00,Acu-Link.com,2014-01-03 02:00:00,
2014-01-02 20:15:00,-8.1,-11.6,30.28,South,180,0.0,-999.0,84,-99.99,,,0.00,Acu-Link.com,2014-01-03 02:15:00,
2014-01-02 20:30:00,-8.1,-11.6,30.27,ESE,112,0.0,-999.0,84,-99.99,,,0.00,Acu-Link.com,2014-01-03 02:30:00,
2014-01-02 20:46:00,-8.1,-11.6,30.27,ESE,112,0.0,-999.0,84,-99.99,,,0.00,Acu-Link.com,2014-01-03 02:46:00,
2014-01-02 21:01:00,-8.5,-12.0,30.25,SE,135,0.0,-999.0,84,-99.99,,,0.00,Acu-Link.com,2014-01-03 03:01:00,
2014-01-02 21:16:00,-8.1,-11.6,30.24,SE,135,0.0,-999.0,84,-99.99,,,0.00,Acu-Link.com,2014-01-03 03:16:00,
2014-01-02 21:31:00,-7.2,-10.7,30.23,ESE,112,1.1,-999.0,84,-99.99,,,0.00,Acu-Link.com,2014-01-03 03:31:00,
2014-01-02 21:47:00,-6.5,-10.0,30.21,ESE,112,1.1,-999.0,84,-99.99,,,0.00,Acu-Link.com,2014-01-03 03:47:00,
2014-01-02 22:02:00,-4.9,-8.5,30.21,SE,135,1.1,-999.0,84,-99.99,,,0.00,Acu-Link.com,2014-01-03 04:02:00,
2014-01-02 22:17:00,-3.6,-7.4,30.21,ESE,112,3.7,-999.0,83,-99.99,,,0.00,Acu-Link.com,2014-01-03 04:17:00,
2014-01-02 22:33:00,-3.3,-7.1,30.21,SE,135,0.0,-999.0,83,-99.99,,,0.00,Acu-Link.com,2014-01-03 04:33:00,
2014-01-02 22:48:00,-2.6,-6.5,30.19,SE,135,1.7,-999.0,83,-99.99,,,0.00,Acu-Link.com,2014-01-03 04:48:00,
2014-01-02 23:03:00,-1.8,-5.9,30.19,SE,135,1.1,-999.0,82,-99.99,,,0.00,Acu-Link.com,2014-01-03 05:03:00,
2014-01-02 23:18:00,-1.5,-5.9,30.20,SSE,157,0.0,-999.0,81,-99.99,,,0.00,Acu-Link.com,2014-01-03 05:18:00,
2014-01-02 23:34:00,-1.3,-5.7,30.19,SSE,157,2.2,-999.0,81,-99.99,,,0.00,Acu-Link.com,2014-01-03 05:34:00,
2014-01-02 23:49:00,-0.9,-5.3,30.18,SSE,157,2.2,-999.0,81,-99.99,,,0.00,Acu-Link.com,2014-01-03 05:49:00,